#timestamp,LO_Frequency,Hit,StdDev 
1546966815.9,286047003.0,P
1546966835.7,286047000.0,N
1546966855.5,286046998.7,N
1546966875.4,286046995.5,N
1546966895.2,286046993.9,N
1546966915.1,286046994.4,N
1546966916.0,286046994.4,N
1546966935.8,286046990.6,N
1546966955.6,286046991.1,N
1546966975.5,286046991.5,N
1546966995.3,286046987.0,N
1546967015.1,286046988.0,N
1546967035.9,286046986.5,N
1546967055.7,286046985.1,N
1546967075.6,286046982.1,N
1546967095.4,286046982.2,N
1546967115.2,286046981.0,N
1546967135.1,286046979.4,N
1546967136.0,286046979.4,N
1546967155.8,286046982.8,N
1546967175.6,286046985.9,N
1546967195.5,286046986.2,N
1546967215.3,286046984.2,N
1546967235.2,286046982.3,N
1546967255.9,286046982.6,N
1546967275.7,286046990.9,N
1546967295.6,286046989.0,N
1546967315.4,286046991.4,N
1546967335.2,286046990.5,N
1546967355.1,286046996.3,N
1546967356.0,286046996.3,N
1546967375.8,286046997.5,N
1546967395.7,286046996.9,N
1546967415.5,286046994.4,N
1546967435.3,286046993.2,N
1546967455.2,286046993.1,N
1546967475.0,286046990.8,N
1546967475.9,286046990.8,N
1546967495.8,286046985.9,N
1546967515.6,286046983.1,Y
1546967535.4,286046996.1,P
1546967555.3,286046995.5,N
1546967575.1,286046994.1,N
1546967595.8,286046995.0,N
1546967615.7,286046995.8,N
1546967635.5,286046992.5,N
1546967655.4,286046992.3,N
1546967675.2,286046999.8,N
1546967695.0,286047002.9,N
1546967695.9,286047002.9,N
1546967715.8,286047001.6,N
1546967735.6,286046999.7,N
1546967755.4,286047002.5,N
1546967775.3,286047007.8,N
1546967795.1,286047006.6,N
1546967815.9,286047007.4,N
1546967835.7,286047005.7,N
1546967855.5,286047008.3,N
1546967875.4,286047007.8,N
1546967895.2,286047011.5,N
1546967915.0,286047007.7,N
1546967916.0,286047007.7,N
1546967935.8,286047011.8,N
1546967955.6,286047011.1,N
1546967975.5,286047008.0,N
1546967995.3,286047006.5,N
1546968015.1,286047004.6,N
1546968035.9,286047005.4,N
1546968055.7,286047001.4,N
1546968075.6,286047003.1,N
1546968095.4,286047004.9,N
1546968115.2,286047002.5,N
1546968135.1,286047001.8,N
1546968136.0,286047001.8,N
1546968155.8,286047001.6,N
1546968175.6,286047001.5,N
1546968195.5,286046999.8,N
1546968215.3,286047003.4,N
1546968235.2,286047002.7,N
1546968255.9,286046998.3,N
1546968275.7,286046993.3,N
1546968295.6,286046992.4,N
1546968315.4,286046992.1,N
1546968335.2,286046992.9,N
1546968355.1,286046990.3,N
1546968356.0,286046990.3,N
1546968375.8,286046998.8,N
1546968395.7,286046999.0,N
1546968415.5,286046996.7,N
1546968435.3,286046996.8,N
1546968455.2,286046998.2,N
1546968475.0,286046997.8,N
1546968475.9,286046997.8,N
1546968495.7,286046997.1,N
1546968515.6,286046997.9,N
1546968535.4,286046995.2,N
1546968555.3,286046995.9,N
1546968575.1,286046996.1,N
1546968576.0,286046996.1,N
1546968595.8,286046996.4,N
1546968615.7,286046993.7,N
1546968635.5,286046992.2,N
1546968655.3,286046993.4,N
1546968675.2,286046995.5,N
1546968695.0,286046999.1,N
1546968695.9,286046999.1,N
1546968715.8,286046999.2,N
1546968735.6,286046997.2,N
1546968755.4,286046995.0,N
1546968775.3,286046992.2,N
1546968795.1,286046992.7,N
1546968815.9,286046990.3,Y
1546968835.7,286046994.1,P
1546968855.5,286046998.0,N
1546968875.4,286046997.1,N
1546968895.2,286047000.0,N
1546968915.0,286046998.5,N
1546968915.9,286046998.5,N
1546968935.8,286047000.7,N
1546968955.6,286047001.1,N
1546968975.5,286047001.5,N
1546968995.3,286047003.9,N
1546969015.1,286047000.5,N
1546969035.9,286047001.5,N
1546969055.7,286047003.6,N
1546969075.5,286047004.7,N
1546969095.4,286047003.3,N
1546969115.2,286047003.8,N
1546969135.1,286047001.9,N
1546969136.0,286047001.9,N
1546969155.8,286047002.2,N
1546969175.6,286047003.6,N
1546969225.5,286047003.0,E
1546969235.4,286047003.1,N
1546969255.3,286047008.6,P
1546969275.1,286047006.2,N
1546969276.0,286047006.2,N
1546969295.9,286047002.1,N
1546969315.7,286046998.6,N
1546969335.5,286047000.8,N
1546969355.4,286047000.0,N
1546969375.2,286046998.0,N
1546969395.0,286046998.9,N
1546969395.9,286046998.9,N
1546969415.8,286047000.3,N
1546969435.6,286047002.0,N
1546969455.5,286047005.1,N
1546969475.3,286047007.1,N
1546969495.2,286047005.4,N
1546969515.9,286047011.5,Y
1546969535.7,286047004.6,P
1546969555.6,286047007.2,P
1546969575.4,286047007.3,P
1546969595.2,286047006.4,Y
1546969615.1,286047000.1,P
1546969616.0,286047000.1,N
1546969635.8,286047002.2,N
1546969655.7,286047002.4,N
1546969675.5,286046999.2,N
1546969695.3,286046997.8,N
1546969715.2,286046995.4,N
1546969735.0,286046998.9,N
1546969735.9,286046998.9,N
1546969755.8,286046997.6,N
1546969775.6,286046995.1,N
1546969795.4,286046997.9,N
1546969815.3,286046999.1,N
1546969835.1,286046996.5,N
1546969855.9,286046998.0,N
1546969875.7,286046996.3,N
1546969895.5,286046993.7,N
1546969915.4,286046996.4,N
1546969935.2,286046996.6,N
1546969955.0,286047002.4,N
1546969956.0,286047002.4,N
1546969975.8,286047011.9,Y
1546969995.6,286047015.9,P
1546970015.5,286047017.4,N
1546970035.3,286047015.7,N
1546970055.1,286047015.3,N
1546970075.9,286047013.9,N
1546970095.7,286047010.0,N
1546970115.6,286047009.6,N
1546970135.4,286047006.6,N
1546970155.2,286047008.7,N
1546970175.1,286047006.6,N
1546970176.0,286047006.6,N
1546970195.8,286047005.8,N
1546970215.6,286047005.9,N
1546970235.5,286046999.7,N
1546970255.3,286047005.1,N
1546970275.2,286047003.9,N
1546970295.9,286047004.8,N
1546970315.7,286047007.2,N
1546970335.6,286047005.8,N
1546970355.4,286047001.4,N
1546970375.3,286047003.9,N
1546970395.1,286047002.7,N
1546970396.0,286047002.7,N
